Starlink 31667

operational
NORAD ID: 59609 Int'l Des: 2024-080 Owner: SPXS Country: US Constellation: starlink
LEOCIRCULAR

Über Starlink 31667

Beschreibung wird geladen...

Live-Position

3D-Globus wird geladen...

Nächste Überflüge

Höhenverlauf

Altitude vs Time

uPlot chart will show altitude changes over time

Zweizeiliger Elementsatz

1 59609U 24080J 26036.49281180 .00001709 00000-0 71595-4 0 9991
2 59609 43.0004 215.8378 0001416 285.1292 74.9403 15.27580730 99651
Epoch: 5. Feb. 2026 • Age: 14 hours

Aktueller Status

Höhe 490.1 km
Geschwindigkeit 7.62 km/s
Subsatellitenpunkt -28.65°S, 88.29°W
Startdatum 28. Apr. 2024
Alter 1.7 years
Typ internet

Technische Details

Klassifizierung Payload
Masse 730.00 kg
Trockenmasse 700.00 kg
Gesamtmasse 730.00 kg
Länge 0.30 m
Durchmesser 4.10 m
Spannweite 29.00 m
Form Box + pan
Hersteller SPXS
Bus-Typ Starlink V2M
Phasenstatus In Orbit
Besitzer/Staat SPXS/US

Große Konstellationen

Loading constellations...